TDRS 13

导读

TDRS-13(追踪与数据中继卫星13号)是美国于2017年8月18日发射的新一代中继卫星,隶属于NASA的TDRS星座系统。它主要为低轨航天器提供高速数据中继与通信支持,包括国际空间站、地球观测卫星等,补充增强了全球空间通信网络,延续了TDRS系统数十年的关键服务能力,保障各类航天任务的持续稳定运行。

Basic Information
目录编号:
42915
目录名称:
TDRS 13
国际标识:
2017-047A
轨道中心:
EARTH
卫星名称:
TDRS 13
卫星全名:
--
卫星状态:
在轨 (已飞行3225 天)
发射日期:
2017-08-18 UTC
国别 :
美国 (US)
星等 :
--
Orbit Information
数据来源 国际轨道数据 AOE轨道数据
星历时间 2026-06-17T03:48:21+0800
22小时前
查看轨道信息
2026-06-17T05:00:00+0800
21小时前
查看轨道信息
半长轴 42164.84km 42164.784km
偏心率 0.001445 0.0014402
轨道倾角 3.452° 3.452°
近地点辐角 106.362° 106.031°
升交点赤经 2.736° 2.739°
平近点角 81.640° 99.930°
近地点 35725.774km 35725.921km
远地点 35847.632km 35847.373km
周期 1436.102分钟 1436.100分钟
每日圈数 1.002714 1.002716
Detailed Information
使用方式:
暂无
2D Orbit Map
3D Orbit Map
Orbit Altitude Analysis Chart
Orbit Inclination Analysis Chart
Orbit Comprehensive Analysis Chart
View Comprehensive Chart